locked
MVMC error while attempting to convert a VM Ware virtual server (exception during a webclient request - access denied ) RRS feed

  • Question

  • here is the log, error is towards the bottom

    any insight would be greatly appreciated!

    06/21/2013 10:01:31 -07:00  [1]  Navigating to the 'Before You Begin' page.
    06/21/2013 10:01:33 -07:00  [1]  Moving Forward from the 'Before You Begin' page.
    06/21/2013 10:01:33 -07:00  [1]  Navigating to the 'Source' page.
    06/21/2013 10:01:49 -07:00  [1]  Value of 'MachineName' = '169.2.72.135'
    06/21/2013 10:01:49 -07:00  [1]  Value of 'UseSessionCredentials' = 'False'
    06/21/2013 10:01:49 -07:00  [1]  Pressing Next on the 'Source' page.
    06/21/2013 10:01:49 -07:00  [1]  Displaying busy cursor.
    06/21/2013 10:01:49 -07:00  [1]  Progress bar visibility changed to 'Visible'.
    06/21/2013 10:01:49 -07:00  [1]  Progress message: 'Validating the credentials'.
    06/21/2013 10:01:49 -07:00  [4]  Background worker thread started.
    06/21/2013 10:01:54 -07:00  [1]  Background task is complete.
    06/21/2013 10:01:54 -07:00  [1]  Displaying normal cursor.
    06/21/2013 10:01:54 -07:00  [1]  Progress message: ''.
    06/21/2013 10:01:54 -07:00  [1]  Progress bar visibility changed to 'Hidden'.
    06/21/2013 10:01:54 -07:00  [1]  Moving Forward from the 'Source' page.
    06/21/2013 10:01:54 -07:00  [1]  Navigating to the 'Virtual Machines' page.
    06/21/2013 10:01:54 -07:00  [1]  Displaying busy cursor.
    06/21/2013 10:01:54 -07:00  [1]  Progress bar visibility changed to 'Visible'.
    06/21/2013 10:01:54 -07:00  [1]  Progress message: 'Getting list of virtual machines'.
    06/21/2013 10:01:54 -07:00  [3]  Background worker thread started.
    06/21/2013 10:01:58 -07:00  [1]  Background task is complete.
    06/21/2013 10:01:58 -07:00  [1]  Displaying normal cursor.
    06/21/2013 10:01:58 -07:00  [1]  Progress message: ''.
    06/21/2013 10:01:58 -07:00  [1]  Progress bar visibility changed to 'Hidden'.
    06/21/2013 10:02:29 -07:00  [1]  Value of 'VirtualMachine.DNSName' = 'cdadhcp01.CDA.AGING.CA.GOV'
    06/21/2013 10:02:29 -07:00  [1]  Moving Forward from the 'Virtual Machines' page.
    06/21/2013 10:02:29 -07:00  [1]  Navigating to the 'Connection' page.
    06/21/2013 10:02:33 -07:00  [1]  Value of 'MachineName' = 'CDADHCP01'
    06/21/2013 10:02:33 -07:00  [1]  Value of 'UseSessionCredentials' = 'True'
    06/21/2013 10:02:33 -07:00  [1]  Pressing Next on the 'Connection' page.
    06/21/2013 10:02:33 -07:00  [1]  Displaying busy cursor.
    06/21/2013 10:02:33 -07:00  [1]  Progress bar visibility changed to 'Visible'.
    06/21/2013 10:02:33 -07:00  [1]  Progress message: 'Validating the credentials'.
    06/21/2013 10:02:33 -07:00  [4]  Background worker thread started.
    06/21/2013 10:02:33 -07:00  [1]  Background task is complete.
    06/21/2013 10:02:33 -07:00  [1]  Displaying normal cursor.
    06/21/2013 10:02:33 -07:00  [1]  Progress message: ''.
    06/21/2013 10:02:33 -07:00  [1]  Progress bar visibility changed to 'Hidden'.
    06/21/2013 10:02:33 -07:00  [1]  Moving Forward from the 'Connection' page.
    06/21/2013 10:02:33 -07:00  [1]  Navigating to the 'Workspace' page.
    06/21/2013 10:02:35 -07:00  [1]  Value of 'WorkspacePath' = 'C:\temp'
    06/21/2013 10:02:35 -07:00  [1]  Moving Forward from the 'Workspace' page.
    06/21/2013 10:02:35 -07:00  [1]  Navigating to the 'Hyper-V Host' page.
    06/21/2013 10:03:09 -07:00  [1]  Value of 'MachineName' = '169.2.72.138'
    06/21/2013 10:03:09 -07:00  [1]  Value of 'UseSessionCredentials' = 'True'
    06/21/2013 10:03:09 -07:00  [1]  Pressing Next on the 'Hyper-V Host' page.
    06/21/2013 10:03:09 -07:00  [1]  Displaying busy cursor.
    06/21/2013 10:03:09 -07:00  [1]  Progress bar visibility changed to 'Visible'.
    06/21/2013 10:03:09 -07:00  [1]  Progress message: 'Validating the credentials'.
    06/21/2013 10:03:09 -07:00  [4]  Background worker thread started.
    06/21/2013 10:03:09 -07:00  [4]  Value of 'DestinationMachineSharePath' = '\\169.2.72.138\Virtuals'
    06/21/2013 10:03:09 -07:00  [4]  Value of 'IsFixedDisk' = 'False'
    06/21/2013 10:03:09 -07:00  [1]  Background task is complete.
    06/21/2013 10:03:09 -07:00  [1]  Displaying normal cursor.
    06/21/2013 10:03:09 -07:00  [1]  Progress message: ''.
    06/21/2013 10:03:09 -07:00  [1]  Progress bar visibility changed to 'Hidden'.
    06/21/2013 10:03:09 -07:00  [1]  Moving Forward from the 'Hyper-V Host' page.
    06/21/2013 10:03:09 -07:00  [1]  Navigating to the 'Summary' page.
    06/21/2013 10:03:09 -07:00  [1]  Progress message: 'Verifying if conversion can proceed based on inputs'.
    06/21/2013 10:03:09 -07:00  [1]  Progress bar visibility changed to 'Visible'.
    06/21/2013 10:03:09 -07:00  [4]  Background worker thread started.
    06/21/2013 10:03:10 -07:00  [1]  Background task is complete.
    06/21/2013 10:03:10 -07:00  [1]  Value of 'SummaryPageConversionWarnings' = 'Warnings:
    1: The video memory configured on the VMware guest machine is greater than 4 MB. The video memory will be limited to 4 MB on the converted machine.
    2: The target host system does not have enough available free physical memory.
    '
    06/21/2013 10:03:10 -07:00  [1]  Progress message: ''.
    06/21/2013 10:03:10 -07:00  [1]  Progress bar visibility changed to 'Hidden'.
    06/21/2013 10:03:11 -07:00  [1]  Moving Forward from the 'Summary' page.
    06/21/2013 10:03:11 -07:00  [1]  Navigating to the 'Completion' page.
    06/21/2013 10:03:11 -07:00  [1]  Progress bar visibility changed to 'Visible'.
    06/21/2013 10:03:11 -07:00  [5]  Background worker thread started.
    06/21/2013 10:03:11 -07:00  [5]  Microsoft.Accelerators.Mvmc.Gui, Version=1.0.4619.17079, Culture=neutral, PublicKeyToken=31bf3856ad364e35
    06/21/2013 10:03:11 -07:00  [5]  Machine Conversion Request Received:
    Source Host:                  169.2.72.135   Use Windows user account = False
    Guest Virtual Machine:        cdadhcp01.CDA.AGING.CA.GOV   Use Windows user account = True
    Destination Host:             169.2.72.138   Use Windows user account = True
    Destination VHD path:         \\169.2.72.138\Virtuals   Use Windows User account = True
    Destination VHD Disk Format:  Dynamic VHD
    Source VM Power state:        On
    Destination VM Power state:   Off
    06/21/2013 10:03:11 -07:00  [5]  _4127 Start - Machine conversion
    06/21/2013 10:03:11 -07:00  [5]  Progress message: 'Converting source virtual machine 'CDADHCP01''.
    06/21/2013 10:03:12 -07:00  [5]  _4574 Start - Validating guest operating system
    06/21/2013 10:03:12 -07:00  [5]  Progress message: 'Validating guest operating system'.
    06/21/2013 10:03:12 -07:00  [5]  Validating source virtual machine.
    06/21/2013 10:03:13 -07:00  [5]  Querying destination Hyper-V Host OS.
    06/21/2013 10:03:13 -07:00  [5]  Querying source virtual machine OS.
    06/21/2013 10:03:13 -07:00  [5]  _4574   End - Validating guest operating system
    06/21/2013 10:03:13 -07:00  [5]  Progress message: 'Converting source virtual machine 'CDADHCP01''.
    06/21/2013 10:03:13 -07:00  [5]  Destination operating system information:
    06/21/2013 10:03:13 -07:00  [5]  Microsoft Windows Server 2008 R2 Standard 
    06/21/2013 10:03:13 -07:00  [5]  Service Pack 1,0
    06/21/2013 10:03:13 -07:00  [5]  6.1.7601
    06/21/2013 10:03:13 -07:00  [5]  Guest operating system information:
    06/21/2013 10:03:13 -07:00  [5]  Microsoft Windows Server 2008 R2 Standard 
    06/21/2013 10:03:13 -07:00  [5]  Service Pack 0,0
    06/21/2013 10:03:13 -07:00  [5]  6.1.7600
    06/21/2013 10:03:13 -07:00  [5]  _3609 Start - Preparing source virtual machine
    06/21/2013 10:03:13 -07:00  [5]  Progress message: 'Preparing source virtual machine'.
    06/21/2013 10:03:13 -07:00  [5]  _5185 Start - Creating snapshot of the source virtual machine
    06/21/2013 10:03:13 -07:00  [5]  Progress message: 'Creating snapshot of the source virtual machine'.
    06/21/2013 10:08:16 -07:00  [5]  _5185   End - Creating snapshot of the source virtual machine
    06/21/2013 10:08:16 -07:00  [5]  Progress message: 'Preparing source virtual machine'.
    06/21/2013 10:08:16 -07:00  [5]  _8020 Start - Uninstalling VMware tools on source virtual machine
    06/21/2013 10:08:16 -07:00  [5]  Progress message: 'Uninstalling VMware tools on source virtual machine'.
    06/21/2013 10:09:03 -07:00  [5]  _8020   End - Uninstalling VMware tools on source virtual machine
    06/21/2013 10:09:03 -07:00  [5]  Progress message: 'Preparing source virtual machine'.
    06/21/2013 10:09:03 -07:00  [5]  _5493 Start - Waiting for the source virtual machine to shutdown
    06/21/2013 10:09:03 -07:00  [5]  Progress message: 'Waiting for the source virtual machine to shutdown'.
    06/21/2013 10:09:18 -07:00  [5]  _5493   End - Waiting for the source virtual machine to shutdown
    06/21/2013 10:09:18 -07:00  [5]  Progress message: 'Preparing source virtual machine'.
    06/21/2013 10:09:18 -07:00  [5]  _3609   End - Preparing source virtual machine
    06/21/2013 10:09:18 -07:00  [5]  Progress message: 'Converting source virtual machine 'CDADHCP01''.
    06/21/2013 10:09:18 -07:00  [5]  _4795 Start - Downloading VMware virtual disks from source virtual machine
    06/21/2013 10:09:18 -07:00  [5]  Progress message: 'Downloading VMware virtual disks from source virtual machine'.
    06/21/2013 10:09:19 -07:00  [5]  _4795   End - Downloading VMware virtual disks from source virtual machine
    06/21/2013 10:09:19 -07:00  [5]  Progress message: 'Converting source virtual machine 'CDADHCP01''.
    06/21/2013 10:09:19 -07:00  [5]  _8439 Start - Restoring source virtual machine to original state
    06/21/2013 10:09:19 -07:00  [5]  Progress message: 'Restoring source virtual machine to original state'.
    06/21/2013 10:09:19 -07:00  [5]  _3896 Start - Restoring snapshot of the source virtual machine
    06/21/2013 10:09:19 -07:00  [5]  Progress message: 'Restoring snapshot of the source virtual machine'.
    06/21/2013 10:09:37 -07:00  [5]  _3896   End - Restoring snapshot of the source virtual machine
    06/21/2013 10:09:37 -07:00  [5]  Progress message: 'Restoring source virtual machine to original state'.
    06/21/2013 10:09:37 -07:00  [5]  _3046 Start - Deleting snapshot of the source virtual machine
    06/21/2013 10:09:37 -07:00  [5]  Progress message: 'Deleting snapshot of the source virtual machine'.
    06/21/2013 10:09:39 -07:00  [5]  _3046   End - Deleting snapshot of the source virtual machine
    06/21/2013 10:09:39 -07:00  [5]  Progress message: 'Restoring source virtual machine to original state'.
    06/21/2013 10:09:39 -07:00  [5]  _1196 Start - Restoration of the source virtual machine has been successfully completed. The source VMware VM is powered on.
    06/21/2013 10:09:39 -07:00  [5]  _1196   End - Restoration of the source virtual machine has been successfully completed. The source VMware VM is powered on.
    06/21/2013 10:09:39 -07:00  [5]  Notification message is displayed on completion page.
    06/21/2013 10:09:39 -07:00  [5]  _8439   End - Restoring source virtual machine to original state
    06/21/2013 10:09:39 -07:00  [5]  Progress message: 'Converting source virtual machine 'CDADHCP01''.
    06/21/2013 10:09:39 -07:00  [5]  System.Net.WebException: An exception occurred during a WebClient request. ---> System.UnauthorizedAccessException: Access to the path 'C:\temp\MVMC\0\disk-0.vmdk' is denied.
       at System.IO.__Error.WinIOError(Int32 errorCode, String maybeFullPath)
       at System.IO.FileStream.Init(String path, FileMode mode, FileAccess access, Int32 rights, Boolean useRights, FileShare share, Int32 bufferSize, FileOptions options, SECURITY_ATTRIBUTES secAttrs, String msgPath, Boolean bFromProxy, Boolean useLongPath)
       at System.IO.FileStream..ctor(String path, FileMode mode, FileAccess access)
       at System.Net.WebClient.DownloadFileAsync(Uri address, String fileName, Object userToken)
       --- End of inner exception stack trace ---
       at Microsoft.Accelerators.Common.ForVMware.ExportLease.GetFiles(IDownloadAdapter adapter, String host, DirectoryInfo dirInfo)
       at Microsoft.Accelerators.Common.ForVMware.VirtualMachine.DownloadFiles(String toPath)
       at Microsoft.Accelerators.Mvmc.Engine.ServiceLayer.MachineConversionService.Convert(IMachineConversionRequest machineConversionRequest, Boolean dynamicDisks)
    06/21/2013 10:09:39 -07:00  [5]  _4127   End - Machine conversion
    06/21/2013 10:09:39 -07:00  [5]  Exception caught : System.Net.WebException: An exception occurred during a WebClient request. ---> System.UnauthorizedAccessException: Access to the path 'C:\temp\MVMC\0\disk-0.vmdk' is denied.
       at System.IO.__Error.WinIOError(Int32 errorCode, String maybeFullPath)
       at System.IO.FileStream.Init(String path, FileMode mode, FileAccess access, Int32 rights, Boolean useRights, FileShare share, Int32 bufferSize, FileOptions options, SECURITY_ATTRIBUTES secAttrs, String msgPath, Boolean bFromProxy, Boolean useLongPath)
       at System.IO.FileStream..ctor(String path, FileMode mode, FileAccess access)
       at System.Net.WebClient.DownloadFileAsync(Uri address, String fileName, Object userToken)
       --- End of inner exception stack trace ---
       at Microsoft.Accelerators.Common.ForVMware.ExportLease.GetFiles(IDownloadAdapter adapter, String host, DirectoryInfo dirInfo)
       at Microsoft.Accelerators.Common.ForVMware.VirtualMachine.DownloadFiles(String toPath)
       at Microsoft.Accelerators.Mvmc.Engine.ServiceLayer.MachineConversionService.Convert(IMachineConversionRequest machineConversionRequest, Boolean dynamicDisks)
       at Microsoft.Accelerators.Mvmc.Engine.ServiceLayer.MachineConversionService.ConvertDynamicDisks(IMachineConversionRequest machineConversionRequest)
       at Microsoft.Accelerators.Mvmc.Gui.Model.ConversionModel.ConvertGuestMachine()
       at Microsoft.Accelerators.Mvmc.Gui.ViewModels.Machine.MachineCompletionViewModel.OnWorkerDoWork()
    06/21/2013 10:09:39 -07:00  [1]  Background task is complete.
    06/21/2013 10:09:39 -07:00  [1]  Progress bar visibility changed to 'Collapsed'.
    06/21/2013 10:09:39 -07:00  [1]  Conversion error message is displayed.
    06/21/2013 10:09:39 -07:00  [1]  Value of 'ErrorMessage' = 'An exception occurred during a WebClient request.'

    Friday, June 21, 2013 5:27 PM

All replies

  • Hi Lee Garza,

    Have you tried using Disk2vhd?

    We know that the difference between the Disk2vhd and MVMC are:

    - Disk2vhd is used to virtualize a physical hard disk.

    - Microsoft Virtual Machine Converter can help to migrate VMs from VMware vSphere to Hyper-V platform.

    But I've used the Disk2vhd to virtualize virtual machines and everything went well.

    Thanks


    Wilsterman Fernandes

    Thursday, August 15, 2013 6:55 PM